Weather Roundup
Issued by NWS

Home | Current Version | Previous Version | Text Only | Print | Product List | Glossary On
Versions: 1 2 3 4 5 6 7 8 9 10 11 12 13 14 15 16 17 18 19 20 21 22 23 24 25 26 27 28 29 30 31 32 33 34 35 36 37 38 39 40 41 42 43 44 45 46 47 48 49 50
000
NZUS93 KARX 240659
HRRWXR

CURRENT HOURLY OBSERVATIONS ACROSS
MUCH OF THE UPPER MISSISSIPPI VALLEY
NATIONAL WEATHER SERVICE LA CROSSE WI
200 AM CDT THU AUG 24 2017


...SOUTHEAST MINNESOTA...


CITY           SKY/WX    TMP DP  RH WIND       PRES   REMARKS
ROCHESTER      CLOUDY    55  52  89 E5        30.10S
ROCHESTER/MAYO FAIR      60  54  80 CALM      30.10S
WINONA         CLOUDY    55  54  94 CALM      30.10S
AUSTIN         CLEAR     54  50  87 E3        30.08S
ALBERT LEA     PTCLDY    57  55  94 CALM      30.08R
DODGE CENTER   CLEAR     54  52  94 E5        30.09S
PRESTON        CLEAR     54  51  91 NE3       30.09F
OWATONNA       CLEAR     55  54  94 E8        30.08S
FARIBAULT      CLOUDY    59  54  82 NE5       30.09R
$$

...ELSEWHERE IN MINNESOTA...


CITY           SKY/WX    TMP DP  RH WIND       PRES   REMARKS
MINNEAPOLIS    CLOUDY    64  52  64 NE14      30.10S
INTNL FALLS    CLEAR     38  36  92 CALM      30.13S FOG
DULUTH         MOCLDY    52  52 100 CALM      30.11R
RED WING       LGT RAIN  61  52  72 NE6       30.10R
REDWOOD FALLS  CLOUDY    61  54  77 E7        30.05S
MANKATO        CLOUDY    60  55  83 E7        30.07S
WORTHINGTON    CLOUDY    62  60  93 NE6       30.05R
FAIRMONT       CLOUDY    61  56  83 S7        30.06S
$$

...SOUTHWEST WISCONSIN...


CITY           SKY/WX    TMP DP  RH WIND       PRES   REMARKS
LA CROSSE      MOCLDY    59  55  87 CALM      30.09S
PRAIRIE DU CHI CLEAR     54  52  92 CALM      30.08R
BOSCOBEL       NOT AVBL
LONE ROCK      NOT AVBL
PLATTEVILLE    CLEAR     54  54 100 CALM      30.07S
FORT MC COY    PTCLDY    48  47  97 CALM      30.11S
CAMP DOUGLAS   PTCLDY    49  49  99 W5        30.10R
MAUSTON-NEW LI MOSUNNY   52  50  92 NW5       30.09R
VIROQUA        FAIR      55  52  90 NE3       30.10R
WIS DELLS      CLEAR     51  49  92 CALM      30.08R
$$

...ELSEWHERE IN WISCONSIN...


CITY           SKY/WX    TMP DP  RH WIND       PRES   REMARKS
MILWAUKEE      CLEAR     58  55  90 NW5       30.03R
MADISON        NOT AVBL
GREEN BAY      MOCLDY    54  47  77 N7        30.08S
EAU CLAIRE     NOT AVBL
BLACK RVR FLS  CLOUDY    54  54  99 N3        30.11R
MEDFORD        CLOUDY    50  46  88 NE3       30.12S
WAUSAU         CLOUDY    53  43  68 CALM      30.10S
WIS RAPIDS     CLOUDY    57  44  62 NE7       30.12R
MARSHFIELD     CLOUDY    55  44  66 E8        30.10F
RICE LAKE      RAIN      56  54  93 SW3       30.14R
$$

...NORTHEAST IOWA...


CITY           SKY/WX    TMP DP  RH WIND       PRES   REMARKS
WATERLOO       PTCLDY    58  56  93 CALM      30.05F
DUBUQUE        NOT AVBL
DECORAH        PTCLDY    55  54  94 CALM      30.07F
MASON CITY     MOCLDY    60  57  89 CALM      30.08R
CHARLES CITY   PTCLDY    55  55 100 NE3       30.07F
OELWEIN        CLOUDY    55  55 100 NE5       30.08R
$$

...ELSEWHERE IN IOWA...


CITY           SKY/WX    TMP DP  RH WIND       PRES   REMARKS
DES MOINES     CLOUDY    67  57  70 SE7       30.05F
IOWA CITY      CLOUDY    60  55  83 CALM      30.07F
FORT DODGE     CLOUDY    62  60  93 CALM      30.06
MARSHALLTOWN   PTCLDY    61  57  87 CALM      30.06S
CEDAR RAPIDS   CLOUDY    57  55  93 CALM      30.06S
$$

...NORTHERN ILLINOIS...


CITY           SKY/WX    TMP DP  RH WIND       PRES   REMARKS
CHICAGO-OHARE  PTCLDY    63  55  75 SW3       30.03S
CHICAGO-MIDWAY MOCLDY    64  56  75 SW7       30.03S
MOLINE         CLEAR     56  53  90 CALM      30.06
ROCKFORD       CLEAR     56  53  90 CALM      30.06S
PEORIA         CLEAR     58  56  93 NW3       30.06S
$$

NOTE: "FAIR" INDICATES FEW OR NO CLOUDS BELOW 12,000 FEET WITH NO
SIGNIFICANT WEATHER AND/OR OBSTRUCTIONS TO VISIBILITY. WIND
SPEEDS ARE IN MILES-PER-HOUR.




USA.gov is the U.S. government's official web portal to all federal, state and local government web resources and services.